Regional Weather Roundup
Issued by NWS Spokane, WA

Home | Current Version | Previous Version | Text Only | Print | Product List | Glossary On
Versions: 1 2 3 4 5 6 7 8 9 10 11 12 13 14 15 16 17 18 19 20 21 22 23 24 25 26 27 28 29 30 31 32 33 34 35 36 37 38 39 40 41 42 43 44 45 46 47 48 49 50
000
NZUS01 KOTX 241310
RWROTX
EASTERN WASHINGTON/NORTHERN IDAHO ROUNDUP
NATIONAL WEATHER SERVICE, SPOKANE WA
600 AM PDT THU JUL 24 2014

Note: "fair" indicated few or no clouds below 12,000 feet with no
significant weather and/or obstructions to visibility.

...NORTHEAST WASHINGTON AND NORTHERN IDAHO PANHANDLE...

CITY           SKY/WX    TMP DP  RH WIND       PRES   REMARKS
SPOKANE INTL   PTCLDY    48  43  82 S12       30.09S
SPOKANE DOWNTO PTCLDY    52  44  74 SW8       30.11S
COEUR D ALENE  CLOUDY    52  45  76 CALM      30.10R
DEER PARK      CLEAR     49  45  86 S10       30.09S
SANDPOINT      MOCLDY    54  46  76 SW5       30.09R

...SOUTHEAST WASHINGTON AND SOUTHERN IDAHO PANHANDLE...

CITY           SKY/WX    TMP DP  RH WIND       PRES   REMARKS
WALLA WALLA    MOCLDY    58  44  60 S15       30.17R
PULLMAN/MOSCOW CLEAR     50  42  74 W6        30.16R
LEWISTON       CLEAR     56  42  59 S7        30.13R
LOWELL           N/A     57  49  74 CALM      30.14R

...COLUMBIA BASIN...

CITY           SKY/WX    TMP DP  RH WIND       PRES   REMARKS
EPHRATA        CLEAR     52  43  71 SW9       30.06R
MOSES LAKE     CLEAR     53  45  74 SE5       30.08R
TRI CITIES     MOCLDY    58  48  69 SW20      30.12S
HERMISTON      MOCLDY    53  43  68 SW7       30.16R
PENDLETON      CLOUDY    49  46  90 S7        30.18R

...EAST SLOPES CASCADES...

CITY           SKY/WX    TMP DP  RH WIND       PRES   REMARKS
THE DALLES     PTCLDY    54  47  77 SE6       30.16R
YAKIMA         CLEAR     45  41  86 CALM      30.10R
ELLENSBURG     PTCLDY    45  41  86 NE5       30.08S
WENATCHEE      PTCLDY    54  42  64 E8        30.04S
OMAK           PTCLDY    55  40  56 S12       30.01R

...SOUTHERN BRITISH COLUMBIA...

CITY           SKY/WX    TMP DP  RH WIND       PRES   REMARKS
PENTICTON      MOCLDY    55  50  82 VRB2      29.98
CASTLEGAR      MOCLDY    59  46  63 S9        30.01
CRANBROOK      PTCLDY    54  43  66 S16       29.98R

...WESTERN MONTANA...

CITY           SKY/WX    TMP DP  RH WIND       PRES   REMARKS
MISSOULA       MOCLDY    58  46  64 NW5       30.04S

...NEIGHBORING CITIES...

CITY           SKY/WX    TMP DP  RH WIND       PRES   REMARKS
SEATTLE        MOCLDY    57  51  80 S9        30.10R
CALGARY        PTCLDY    55  50  82 SW10G17   29.78F



USA.gov is the U.S. government's official web portal to all federal, state and local government web resources and services.